Regional Weather Roundup
Issued by NWS

Home | Current Version | Previous Version | Graphics & Text | Print | Product List | Glossary On
Versions: 1 2 3 4 5 6 7 8 9 10 11 12 13 14 15 16 17 18 19 20 21 22 23 24 25 26 27 28 29 30 31 32 33 34 35 36 37 38 39 40 41 42 43 44 45 46 47 48 49 50
000
ASUS43 KBIS 060701
RWRND

NORTH DAKOTA REGIONAL WEATHER ROUNDUP
NATIONAL WEATHER SERVICE BISMARCK ND
200 AM CDT WED MAY 06 2015

NOTE: "FAIR" INDICATES FEW OR NO CLOUDS BELOW 12,000 FEET WITH NO
SIGNIFICANT WEATHER AND/OR OBSTRUCTIONS TO VISIBILITY.


NDZ001>003-009>011-017-060800-
NORTHWEST NORTH DAKOTA

CITY           SKY/WX    TMP DP  RH WIND       PRES   REMARKS
WILLISTON      CLEAR     61  50  67 SE10      29.74F
MINOT          CLEAR     52  42  69 SE8       29.81F
$$

NDZ018>021-031>035-040>046-060800-
SOUTHWEST NORTH DAKOTA

CITY           SKY/WX    TMP DP  RH WIND       PRES   REMARKS
BISMARCK       CLOUDY    59  32  36 S16       29.86S
DICKINSON      PTCLDY    54  51  90 SE13      29.76F
GARRISON         N/A     57  50  77 S10       29.82F
HETTINGER ARPT CLOUDY    56  53  90 SE15      29.80F
$$

NDZ004>008-012>016-024-026-027-054-060800-
NORTHEAST NORTH DAKOTA

CITY           SKY/WX    TMP DP  RH WIND       PRES   REMARKS
GRAND FORKS    PTCLDY    60  52  74 SE12      29.96S
DEVILS LAKE    MOCLDY    59  52  77 SE13      29.91S
$$

NDZ022-023-025-028>030-036>039-047>053-060800-
SOUTHEAST NORTH DAKOTA

CITY           SKY/WX    TMP DP  RH WIND       PRES   REMARKS
FARGO          CLOUDY    63  53  70 S15G25    29.97S
JAMESTOWN      CLOUDY    61  55  81 SE13      29.92S
$$



USA.gov is the U.S. government's official web portal to all federal, state and local government web resources and services.